Regional Weather Roundup
Issued by NWS

Home | Current Version | Previous Version | Graphics & Text | Print | Product List | Glossary On
Versions: 1 2 3 4 5 6 7 8 9 10 11 12 13 14 15 16 17 18 19 20 21 22 23 24 25 26 27 28 29 30 31 32 33 34 35 36 37 38 39 40 41 42 43 44 45 46 47 48 49 50
000
ASUS43 KLOT 230521
RWRIL

ILLINOIS REGIONAL WEATHER ROUNDUP
NATIONAL WEATHER SERVICE CHICAGO/ROMEOVILLE IL
1200 AM CDT SAT MAY 23 2015

NOTE: "FAIR" INDICATES FEW OR NO CLOUDS BELOW 12,000 FEET WITH NO
SIGNIFICANT WEATHER AND/OR OBSTRUCTIONS TO VISIBILITY.

* THESE STATIONS ARE NOT UNDER NWS QUALITY CONTROL. THEY ALSO MAY NOT
  REPORT WEATHER SUCH AS PRECIPITATION OR FOG.

ILZ001-002-007-009-015-016-024-230600-
NORTHWEST ILLINOIS

CITY           SKY/WX    TMP DP  RH WIND       PRES   REMARKS
MOLINE         CLOUDY    59  47  64 E6        30.22S
STERLING*      CLOUDY    57  36  44 E12       30.26S
SAVANNA*       MOCLDY    61  37  40 SE3       30.24F
$$

ILZ003-004-008-010-011-017-018-230600-
NORTH CENTRAL ILLINOIS

CITY           SKY/WX    TMP DP  RH WIND       PRES   REMARKS
ROCKFORD       CLOUDY    54  32  43 SE6       30.30S
FREEPORT*      CLOUDY    54  37  52 E3        30.29R
ROCHELLE*      CLOUDY    54  33  46 SE7       30.28S
DE KALB*       CLOUDY    50  32  49 SE7       30.30R
PERU*          CLOUDY    59  38  45 E3        30.28S
$$

ILZ005-006-012>014-019>023-230600-
NORTHEAST ILLINOIS

CITY           SKY/WX    TMP DP  RH WIND       PRES   REMARKS
CHICAGO-OHARE  MOCLDY    53  32  44 E8        30.29S
CHICAGO-MIDWAY MOCLDY    56  35  45 E6        30.29S
AURORA         MOCLDY    52  31  44 E3        30.29S
LANSING*       MOCLDY    51  36  55 CALM      30.29S
JOLIET*        MOCLDY    53  38  57 CALM      30.28S
WAUKEGAN       CLOUDY    48  31  51 SE3       30.29S
DUPAGE AIRPORT MOCLDY    52  31  44 E3        30.28S
KANKAKEE*      MOCLDY    53  40  62 CALM      30.29S
WHEELING       MOCLDY    47  35  63 CALM      30.31F
MORRIS*        MOCLDY    53  36  51 E3        30.24F
ROMEOVILLE*    MOCLDY    51  36  57 E5        30.29S
NORTHERLY ISL    N/A     52  40  63 NE5         N/A
$$

LMZ740>746-230600-
SOUTHERN LAKE MICHIGAN

STATION/POSITION SKY/WX   TEMP    WIND        PRES    VSBY  WAVE
                          AIR SEA DIR/SP/G                  HT/PER
                          (F)     (DEG/KT/KT) (MB)    (MI)  (FT/S)
SOUTHERN BUOY              43 38  160/  8/  8 1026.3F         0
HARRISON CRIB              52     110/  8/  9   N/A
BURNHAM HARBOR             52      60/  4/  6   N/A
CALUMET HARBOR             53      50/  4/  6   N/A
BURNS HARBOR               55      70/  5/  6 1026.4R
MICHIGAN CITY              54     100/  2/  4   N/A
MICHIGAN CITY 6N           54 51  130/  4/  6   N/A           1/ 4
ST. JOSEPH                 55 53  160/  4/  6   N/A           1/ 3
$$

ILZ025>027-034>036-040-047-049-050-058-095>099-230600-
WEST-CENTRAL ILLINOIS

CITY           SKY/WX    TMP DP  RH WIND       PRES   REMARKS
QUINCY         MOCLDY    61  52  72 N3        30.23F
GALESBURG*     CLOUDY    60  49  66 CALM      30.24S
MACOMB*        MOCLDY    62  54  76 SW7       30.27R
JACKSONVILLE*  CLOUDY    64  56  75 CALM      30.25S
PITTSFIELD*    CLOUDY    63  53  70 S12G17    30.25F
$$

ILZ028>032-037-038-041>044-048-051>054-059>061-230600-
CENTRAL ILLINOIS

CITY           SKY/WX    TMP DP  RH WIND       PRES   REMARKS
PONTIAC        CLOUDY    61  40  46 E8        30.27S
BLOOMINGTON    MOCLDY    63  40  42 SE10      30.27S
DECATUR        CLOUDY    63  49  60 W6        30.26R
PEORIA         CLOUDY    65  46  50 CALM      30.24S
LACON*         CLOUDY    63  36  37 SE10      30.25S
LINCOLN*       CLOUDY    67  50  55 CALM      30.23S
SPRINGFIELD    CLOUDY    66  53  63 SW3       30.25S
TAYLORVILLE    CLOUDY    61  54  77 W3        30.26S
$$

ILZ033-039-045-046-055>057-062-063-230600-
EAST-CENTRAL ILLINOIS

CITY           SKY/WX    TMP DP  RH WIND       PRES   REMARKS
CHAMPAIGN      CLOUDY    64  41  42 E9        30.26F
DANVILLE*      MOCLDY    61  40  45 E7        30.25S
RANTOUL*       CLOUDY    65  40  39 E7        30.27S
MATTOON        CLOUDY    65  49  56 SW6       30.25S
PARIS*         CLOUDY    63  51  64 CALM      30.27S
$$

ILZ079-100>102-230600-
SOUTHWEST ILLINOIS

CITY           SKY/WX    TMP DP  RH WIND       PRES   REMARKS
ALTON          CLOUDY    61  60  96 CALM      30.25F
BELLEVILLE     MOCLDY    61  58  90 CALM      30.24F
CAHOKIA*       CLOUDY    64  56  75 CALM      30.24F
SPARTA*        MOCLDY    61  55  79 CALM      30.27S
$$

ILZ064>066-069>071-074>076-080>082-084>086-088>090-092>094-230600-
SOUTH-CENTRAL ILLINOIS

CITY           SKY/WX    TMP DP  RH WIND       PRES   REMARKS
CARBONDALE     MOCLDY    59  55  87 CALM      30.26F
CAIRO*         MOCLDY    61  56  84 E3        30.25F
EFFINGHAM*     CLOUDY    61  50  68 S3        30.27S
MARION         MOCLDY    59  55  88 CALM      30.28F
MT. VERNON     MOCLDY    54  50  87 CALM      30.27F
CENTRALIA*     PTCLDY    60  53  77 CALM      30.26F
SALEM*         PTCLDY    63  54  72 CALM      30.27S
METROPOLIS*    MOCLDY    59  59 100 CALM      30.26F
$$

ILZ067-068-072-073-078-083-087-091-230600-
SOUTHEAST ILLINOIS

CITY           SKY/WX    TMP DP  RH WIND       PRES   REMARKS
LAWRENCEVILLE  CLOUDY    61  54  77 SE5       30.28S
FLORA*         CLOUDY    59  55  84 CALM      30.27F
FAIRFIELD*     MOCLDY    58  55  90 CALM      30.27S
HARRISBURG*    MOCLDY    58  57  97 CALM      30.29S
ROBINSON*      CLOUDY    61  53  75 S3        30.27F
CARMI*         MOCLDY    59  53  79 CALM      30.27F
$$

ABBREVIATIONS USED IN REMARKS
   TC - TEMPERATURE IN CELSIUS
  WCI - WIND CHILL INDEX
   HX - HEAT INDEX
  VSB - VISIBILITY
$$




USA.gov is the U.S. government's official web portal to all federal, state and local government web resources and services.